Satellite: NOAA-11 Catalog number: 19531 Epoch time: 11040.84196459 Element set: 0397 Inclination: 098.7560 deg RA of node: 130.7060 deg Eccentricity: 0.0011009 Arg of perigee: 187.9345 deg Mean anomaly: 172.1640 deg Mean motion: 14.14903064 rev/day Decay rate: -7.8e-07 rev/day^2 Epoch rev: 15474 Checksum: 293
Satellite: NOAA-12 Catalog number: 21263 Epoch time: 11040.84905362 Element set: 0891 Inclination: 098.7566 deg RA of node: 058.8785 deg Eccentricity: 0.0012254 Arg of perigee: 193.0718 deg Mean anomaly: 167.0142 deg Mean motion: 14.25682793 rev/day Decay rate: 1.38e-06 rev/day^2 Epoch rev: 02626 Checksum: 309
Satellite: MET-3/5 Catalog number: 21655 Epoch time: 11041.57024147 Element set: 34 Inclination: 082.5598 deg RA of node: 140.2341 deg Eccentricity: 0.0014702 Arg of perigee: 112.3464 deg Mean anomaly: 247.9188 deg Mean motion: 13.17024042 rev/day Decay rate: 5.1e-07 rev/day^2 Epoch rev: 93705 Checksum: 262
Satellite: MET-2/21 Catalog number: 22782 Epoch time: 11040.84098171 Element set: 0015 Inclination: 082.5447 deg RA of node: 063.9161 deg Eccentricity: 0.0024046 Arg of perigee: 095.4411 deg Mean anomaly: 264.9495 deg Mean motion: 13.83652155 rev/day Decay rate: 1.4e-07 rev/day^2 Epoch rev: 88094 Checksum: 295
Satellite: OKEAN-4 Catalog number: 23317 Epoch time: 11041.72181120 Element set: 470 Inclination: 082.5423 deg RA of node: 131.2186 deg Eccentricity: 0.0022242 Arg of perigee: 171.6576 deg Mean anomaly: 188.5025 deg Mean motion: 14.82936063 rev/day Decay rate: 1.74e-06 rev/day^2 Epoch rev: 88180 Checksum: 269
Satellite: NOAA-14 Catalog number: 23455 Epoch time: 11040.93246973 Element set: 0377 Inclination: 098.8584 deg RA of node: 124.8064 deg Eccentricity: 0.0008645 Arg of perigee: 283.0861 deg Mean anomaly: 076.9332 deg Mean motion: 14.13805289 rev/day Decay rate: -2.6e-07 rev/day^2 Epoch rev: 83109 Checksum: 320
Satellite: NOAA-15 Catalog number: 25338 Epoch time: 11040.71564463 Element set: 0704 Inclination: 098.6446 deg RA of node: 028.6812 deg Eccentricity: 0.0011581 Arg of perigee: 102.2799 deg Mean anomaly: 257.9675 deg Mean motion: 14.24882318 rev/day Decay rate: 9.9e-07 rev/day^2 Epoch rev: 66257 Checksum: 327
Satellite: RESURS Catalog number: 25394 Epoch time: 11041.65086625 Element set: 721 Inclination: 098.2991 deg RA of node: 051.6454 deg Eccentricity: 0.0000466 Arg of perigee: 244.5472 deg Mean anomaly: 115.5657 deg Mean motion: 14.24222741 rev/day Decay rate: -2.3e-07 rev/day^2 Epoch rev: 65429 Checksum: 286
Satellite: FENGYUN1 Catalog number: 25730 Epoch time: 11040.95038729 Element set: 0257 Inclination: 098.8063 deg RA of node: 005.0079 deg Eccentricity: 0.0022454 Arg of perigee: 311.0782 deg Mean anomaly: 048.8516 deg Mean motion: 14.08490909 rev/day Decay rate: 9.1e-07 rev/day^2 Epoch rev: 60515 Checksum: 288
Satellite: OKEAN-0 Catalog number: 25860 Epoch time: 11040.51881054 Element set: 0227 Inclination: 097.8668 deg RA of node: 010.6051 deg Eccentricity: 0.0001840 Arg of perigee: 058.9783 deg Mean anomaly: 301.1601 deg Mean motion: 14.73707616 rev/day Decay rate: 9.1e-07 rev/day^2 Epoch rev: 62185 Checksum: 277
Satellite: NOAA-16 Catalog number: 26536 Epoch time: 11040.79528793 Element set: 0184 Inclination: 099.1536 deg RA of node: 068.6720 deg Eccentricity: 0.0010914 Arg of perigee: 034.5327 deg Mean anomaly: 325.6544 deg Mean motion: 14.12594672 rev/day Decay rate: -2.62e-06 rev/day^2 Epoch rev: 53537 Checksum: 313
Satellite: NOAA-17 Catalog number: 27453 Epoch time: 11040.73894807 Element set: 0180 Inclination: 098.3975 deg RA of node: 086.1986 deg Eccentricity: 0.0012071 Arg of perigee: 158.3445 deg Mean anomaly: 201.8251 deg Mean motion: 14.24234491 rev/day Decay rate: 6.3e-07 rev/day^2 Epoch rev: 44851 Checksum: 305
Satellite: NOAA-18 Catalog number: 28654 Epoch time: 11040.78530866 Element set: 0666 Inclination: 098.9816 deg RA of node: 351.7237 deg Eccentricity: 0.0015143 Arg of perigee: 102.7817 deg Mean anomaly: 257.5045 deg Mean motion: 14.11433689 rev/day Decay rate: 1.16e-06 rev/day^2 Epoch rev: 29495 Checksum: 325
Satellite: NOAA-19 Catalog number: 33591 Epoch time: 11040.75437210 Element set: 0858 Inclination: 098.8155 deg RA of node: 343.1309 deg Eccentricity: 0.0013898 Arg of perigee: 340.4385 deg Mean anomaly: 019.6265 deg Mean motion: 14.11128524 rev/day Decay rate: 3.11e-06 rev/day^2 Epoch rev: 10341 Checksum: 284
/EX SB KEPS @ AMSAT $ORB11041.M Orbital Elements 11041.MISC
HR AMSAT ORBITAL ELEMENTS FOR MANNED AND MISCELLANEOUS SATELLITES FROM WA5QGD FORT WORTH,TX February 10, 2011 Send Subscribe/unsubscribe to KEPS at http://www.amsat.org/mailman/listinfo/keps BID: ORB11041.M TO ALL RADIO AMATEURS BT
Satellite: HUBBLE Catalog number: 20580 Epoch time: 11041.60843290 Element set: 712 Inclination: 028.4694 deg RA of node: 123.1746 deg Eccentricity: 0.0003504 Arg of perigee: 211.1712 deg Mean anomaly: 148.8749 deg Mean motion: 15.01157440 rev/day Decay rate: 6.40e-06 rev/day^2 Epoch rev: 94061 Checksum: 256
Satellite: ISS Catalog number: 25544 Epoch time: 11042.01601058 Element set: 800 Inclination: 051.6449 deg RA of node: 087.8999 deg Eccentricity: 0.0004517 Arg of perigee: 299.5128 deg Mean anomaly: 132.8333 deg Mean motion: 15.72288264 rev/day Decay rate: 3.529e-05 rev/day^2 Epoch rev: 70104 Checksum: 296
Satellite: CO-58 Catalog number: 28895 Epoch time: 11040.66570968 Element set: 0797 Inclination: 097.9860 deg RA of node: 281.8492 deg Eccentricity: 0.0016696 Arg of perigee: 260.0426 deg Mean anomaly: 099.8900 deg Mean motion: 14.60004879 rev/day Decay rate: 2.18e-06 rev/day^2 Epoch rev: 28163 Checksum: 357
Satellite: FALCON Catalog number: 30776 Epoch time: 11040.35488663 Element set: 18 Inclination: 035.4336 deg RA of node: 043.9381 deg Eccentricity: 0.0000635 Arg of perigee: 022.3295 deg Mean anomaly: 337.7517 deg Mean motion: 15.04102506 rev/day Decay rate: 1.006e-05 rev/day^2 Epoch rev: 21578 Checksum: 265
Satellite: MAST Catalog number: 31126 Epoch time: 11041.66331871 Element set: 81 Inclination: 097.9087 deg RA of node: 075.9612 deg Eccentricity: 0.0094272 Arg of perigee: 203.9249 deg Mean anomaly: 155.7548 deg Mean motion: 14.53671523 rev/day Decay rate: 1.43e-06 rev/day^2 Epoch rev: 20270 Checksum: 287
Satellite: CAPE1 Catalog number: 31130 Epoch time: 11040.63469993 Element set: 100 Inclination: 097.9125 deg RA of node: 071.9553 deg Eccentricity: 0.0102038 Arg of perigee: 216.9233 deg Mean anomaly: 142.4906 deg Mean motion: 14.52287734 rev/day Decay rate: 1.00e-06 rev/day^2 Epoch rev: 20212 Checksum: 254
Satellite: COMPASS Catalog number: 32787 Epoch time: 11041.63999120 Element set: 906 Inclination: 097.8634 deg RA of node: 107.7488 deg Eccentricity: 0.0014943 Arg of perigee: 226.5742 deg Mean anomaly: 133.4173 deg Mean motion: 14.82134656 rev/day Decay rate: 4.71e-06 rev/day^2 Epoch rev: 15081 Checksum: 307
Satellite: AAUSAT2 Catalog number: 32788 Epoch time: 11040.67359542 Element set: 0894 Inclination: 097.8644 deg RA of node: 106.9844 deg Eccentricity: 0.0014380 Arg of perigee: 231.4022 deg Mean anomaly: 128.5941 deg Mean motion: 14.82295508 rev/day Decay rate: 5.96e-06 rev/day^2 Epoch rev: 15068 Checksum: 321
Satellite: DO-64 Catalog number: 32789 Epoch time: 11040.71591148 Element set: 0912 Inclination: 097.8725 deg RA of node: 107.8114 deg Eccentricity: 0.0014650 Arg of perigee: 228.9534 deg Mean anomaly: 131.0390 deg Mean motion: 14.82582343 rev/day Decay rate: 5.39e-06 rev/day^2 Epoch rev: 15069 Checksum: 307
Satellite: CO-66 Catalog number: 32791 Epoch time: 11040.68704041 Element set: 0896 Inclination: 097.8639 deg RA of node: 106.7878 deg Eccentricity: 0.0015219 Arg of perigee: 229.1772 deg Mean anomaly: 130.8123 deg Mean motion: 14.81876202 rev/day Decay rate: 5.61e-06 rev/day^2 Epoch rev: 15062 Checksum: 313
Satellite: RS-30 Catalog number: 32953 Epoch time: 11041.61877328 Element set: 458 Inclination: 082.4966 deg RA of node: 241.4079 deg Eccentricity: 0.0018436 Arg of perigee: 304.8846 deg Mean anomaly: 055.0500 deg Mean motion: 12.43010536 rev/day Decay rate: 1.0e-07 rev/day^2 Epoch rev: 12336 Checksum: 275
Satellite: TACSAT-3 Catalog number: 35001 Epoch time: 11040.93849831 Element set: 0502 Inclination: 040.4535 deg RA of node: 223.0026 deg Eccentricity: 0.0024124 Arg of perigee: 342.8596 deg Mean anomaly: 017.1403 deg Mean motion: 15.44727235 rev/day Decay rate: 7.100e-05 rev/day^2 Epoch rev: 09737 Checksum: 255
Satellite: PHARMSAT Catalog number: 35002 Epoch time: 11040.89878882 Element set: 0467 Inclination: 040.4669 deg RA of node: 220.7219 deg Eccentricity: 0.0026301 Arg of perigee: 346.0517 deg Mean anomaly: 013.9568 deg Mean motion: 15.44941004 rev/day Decay rate: 6.456e-05 rev/day^2 Epoch rev: 09739 Checksum: 302
Satellite: HAWKSAT1 Catalog number: 35003 Epoch time: 11040.86343149 Element set: 0515 Inclination: 040.4537 deg RA of node: 205.3902 deg Eccentricity: 0.0024934 Arg of perigee: 010.6834 deg Mean anomaly: 349.4510 deg Mean motion: 15.51817104 rev/day Decay rate: 2.0570e-04 rev/day^2 Epoch rev: 09756 Checksum: 262
Satellite: CP6 Catalog number: 35004 Epoch time: 11040.82970160 Element set: 0515 Inclination: 040.4584 deg RA of node: 201.5100 deg Eccentricity: 0.0023924 Arg of perigee: 015.9447 deg Mean anomaly: 344.2127 deg Mean motion: 15.54107199 rev/day Decay rate: 2.5310e-04 rev/day^2 Epoch rev: 09759 Checksum: 265
Satellite: AEROCUB3 Catalog number: 35005 Epoch time: 11006.09222617 Element set: 610 Inclination: 040.4461 deg RA of node: 021.7975 deg Eccentricity: 0.0025578 Arg of perigee: 084.1677 deg Mean anomaly: 280.7191 deg Mean motion: 16.39196088 rev/day Decay rate: 1.4049365e-01 rev/day^2 Epoch rev: 9254 Checksum: 305
